Theta_e
301 299 296 293 293 292 292 292 290 288 287 286 286 286 285 285 286 286 285 285 285 285 285 284 284 285 285 284 285 285 284 282 280 283 283 283 282 283 283 284 283 283 283
298 295 293 292 292 291 290 290 289 287 287 287 286 286 286 285 285 285 285 285 284 284 284 284 283 284 283 284 283 283 282 282 281 279 282 281 282 283 283 282 281 281 281
295 293 292 291 290 289 289 288 288 287 287 287 287 286 285 285 285 285 285 284 284 284 284 283 283 283 283 283 282 281 281 281 281 279 279 282 282 283 281 282 281 281 280
292 291 290 290 289 288 288 287 287 287 287 287 286 286 286 286 285 285 284 284 283 283 283 283 283 283 283 282 281 281 281 280 280 280 280 280 281 282 280 279 278 279 277
291 290 289 289 288 287 288 287 288 288 287 287 286 286 286 286 285 284 283 283 282 282 282 283 283 283 282 282 280 281 281 280 280 280 279 280 279 279 277 278 275 276 275
290 288 288 288 287 288 288 287 287 286 286 285 285 285 284 283 285 285 283 282 282 282 282 282 282 281 281 282 282 283 283 281 280 280 280 278 278 278 277 276 274 272 270
289 288 288 288 287 287 287 286 286 285 285 285 284 283 283 282 285 286 285 283 282 282 281 281 280 280 281 281 281 282 282 283 283 281 279 279 278 277 275 274 273 271 270
288 287 287 287 287 286 286 286 285 285 285 284 283 283 283 282 286 286 286 284 282 282 282 282 281 282 282 281 280 280 280 280 280 280 280 279 278 277 275 274 272 270 270
287 287 287 287 286 286 285 285 284 283 283 283 283 283 282 282 285 286 286 284 283 283 283 283 283 282 283 282 280 279 279 279 281 280 278 276 274 273 273 271 269 267 266
286 286 286 286 286 285 284 282 283 283 282 281 281 282 282 282 284 285 286 284 282 282 283 282 282 282 283 283 281 280 278 279 279 277 274 273 271 270 269 269 268 265 265
285 285 285 286 285 284 283 282 282 282 281 282 281 281 282 281 282 285 286 284 283 283 282 282 282 283 283 283 283 281 280 281 278 276 273 272 271 270 269 268 267 265 264
284 284 283 283 283 283 283 282 282 282 282 281 281 281 281 281 281 283 285 286 286 284 283 283 282 282 283 284 283 283 281 277 275 273 272 271 269 269 268 267 266 265 266
283 282 282 282 283 283 283 282 281 282 283 281 280 281 282 281 281 283 284 285 285 285 285 284 283 283 283 283 283 281 279 274 273 271 271 270 269 267 265 264 265 264 263
283 282 281 282 282 282 283 283 283 282 282 282 281 282 282 281 281 281 281 283 283 284 284 283 283 283 283 281 280 280 275 274 273 271 271 269 267 265 264 264 262 263 261
282 280 281 282 283 281 282 282 282 283 284 284 284 284 283 283 283 283 283 282 282 282 278 279 280 280 278 276 276 275 273 271 269 269 268 266 265 264 263 263 261 261 259
281 280 281 282 282 282 282 281 282 283 282 283 284 284 284 284 282 283 283 283 282 280 277 277 277 277 277 276 274 273 272 269 270 270 268 266 264 263 263 262 261 260 259
284 282 281 281 282 281 281 282 282 282 283 284 284 285 285 283 282 283 284 284 284 283 278 278 278 277 277 276 276 275 274 271 270 268 267 265 264 262 260 261 261 260 260
283 279 283 283 282 282 282 282 283 285 284 284 283 284 285 285 285 285 285 284 283 283 283 281 279 279 278 277 276 275 274 272 268 267 265 264 262 261 260 260 260 259 259
282 282 282 282 282 282 283 282 282 282 282 283 283 279 280 284 285 286 286 284 283 283 283 283 283 281 280 279 277 276 274 272 268 265 264 262 261 259 258 259 259 256 255
280 277 279 281 281 281 281 280 280 280 281 281 281 281 280 276 279 281 283 283 283 283 283 283 282 281 279 278 276 274 271 268 266 263 263 261 260 258 258 258 257 258 259
282 280 275 280 280 280 280 279 280 281 280 280 281 281 279 278 280 281 281 280 280 280 280 280 279 279 277 275 273 271 269 268 265 263 262 261 259 257 257 258 257 257 256
281 280 279 279 280 279 279 279 279 279 279 278 280 278 278 279 279 278 278 278 278 278 278 277 276 275 274 272 270 269 267 265 264 262 262 260 258 257 257 256 256 256 257
279 279 278 278 278 274 276 277 277 277 277 277 277 276 276 277 278 278 277 277 277 276 275 273 272 272 271 269 269 268 266 265 264 263 261 260 258 258 257 256 256 256 257
278 278 278 277 276 276 276 276 276 272 273 275 275 276 275 275 275 274 274 275 274 274 272 270 268 268 268 266 266 265 265 265 264 262 261 260 259 258 257 256 256 256 256
275 275 275 275 275 275 274 274 274 274 273 273 274 273 273 273 273 273 273 273 271 269 268 265 265 266 265 264 264 263 263 263 260 260 259 258 258 258 256 256 256 257 257
273 273 273 273 273 273 273 273 272 272 271 271 272 271 271 271 271 271 270 267 267 266 265 265 264 264 265 264 263 263 262 262 260 258 258 257 257 257 256 256 256 257 259
Wind_Speed
18 16 16 18 20 20 16 19 19 18 17 15 14 11 10 9 7 8 8 7 7 7 6 5 5 5 4 4 4 4 4 3 5 5 3 5 7 7 8 8 9 9 9
18 18 19 20 21 19 19 21 18 19 17 14 13 12 10 10 8 9 10 9 8 8 7 6 6 5 6 6 5 5 5 5 5 9 6 6 7 8 8 10 8 7 9
19 20 19 19 20 21 21 20 19 19 17 14 14 11 11 9 10 9 8 8 7 7 7 8 7 8 8 6 5 4 4 4 5 7 8 7 7 6 7 8 8 10 8
18 19 21 19 20 22 22 21 19 17 18 13 11 10 9 10 9 8 8 8 7 6 6 7 7 9 8 6 5 5 5 5 6 7 8 8 6 6 5 7 9 9 10
20 19 17 20 19 21 21 20 17 13 14 12 10 9 9 9 7 8 8 8 7 7 7 8 8 8 6 6 4 5 5 6 7 7 8 7 7 6 7 7 9 9 11
18 19 18 18 20 20 19 18 16 14 13 10 9 10 9 5 13 14 9 7 8 9 9 9 8 7 8 11 11 12 11 8 9 8 8 8 8 7 6 7 9 10 7
19 18 19 17 20 19 17 16 14 14 12 10 9 9 9 7 14 14 14 8 9 9 7 5 5 5 6 7 9 12 13 15 15 11 11 8 8 6 6 9 9 9 11
18 19 18 17 16 18 17 15 13 12 13 11 10 9 8 7 15 17 15 8 6 7 7 7 7 7 8 8 8 9 10 9 9 8 7 6 4 4 6 7 9 10 11
16 17 16 16 16 16 15 13 11 11 9 9 8 9 9 9 15 14 11 7 8 8 7 9 10 9 11 12 10 11 11 9 7 5 2 3 1 2 5 4 6 7 8
13 14 15 14 15 15 14 12 8 9 8 7 7 8 7 5 11 13 12 5 7 5 7 9 11 11 13 15 13 11 11 9 7 6 5 4 1 2 2 4 4 7 7
12 13 12 11 12 12 10 7 9 8 8 6 5 4 5 7 8 13 15 7 6 6 6 6 6 15 19 17 17 10 11 5 8 5 4 3 4 4 4 4 5 6 7
10 11 10 9 7 8 11 8 8 8 6 5 4 4 5 6 9 12 15 16 11 7 8 6 7 12 13 16 13 12 10 8 5 5 4 5 5 4 4 4 5 7 8
9 9 8 8 8 8 9 8 7 7 6 6 6 6 6 4 6 13 13 15 16 12 7 9 10 11 14 13 15 12 10 5 5 5 6 5 4 2 4 4 5 8 11
9 8 7 8 7 6 5 5 6 6 6 5 6 6 5 4 5 5 7 7 12 11 9 6 8 10 11 8 7 9 6 6 6 7 5 3 2 3 4 3 4 6 8
6 6 6 5 6 6 4 6 7 6 7 6 5 5 5 6 8 11 9 7 7 7 3 3 5 6 7 6 6 6 6 6 6 6 5 5 4 4 4 3 5 5 6
6 5 6 6 6 5 6 5 6 8 8 7 6 7 5 10 3 5 12 13 10 10 3 4 6 7 9 9 9 9 8 8 8 7 6 5 5 5 4 4 5 6 7
8 7 6 5 6 6 5 5 5 5 10 11 15 18 13 8 10 14 15 14 12 11 7 7 7 8 9 9 9 9 9 9 7 7 6 6 5 5 4 5 5 6 7
4 4 5 6 6 5 5 6 5 6 5 4 10 12 13 17 18 18 15 11 7 12 11 11 9 9 8 9 8 9 8 7 7 7 7 6 5 5 5 6 6 6 6
5 4 4 4 5 4 5 5 5 5 2 4 2 5 7 15 15 15 16 10 10 10 10 10 10 8 8 8 8 8 8 8 7 6 7 6 6 5 6 6 6 7 6
4 4 4 5 5 5 2 4 4 3 5 6 6 6 2 2 5 7 8 8 9 9 8 8 7 8 8 8 8 7 7 7 7 6 6 6 6 6 6 6 6 6 6
4 4 3 2 1 2 4 5 5 5 6 6 6 4 7 6 7 7 6 7 7 7 7 7 7 7 7 7 7 7 7 7 6 7 6 7 7 7 6 5 6 6 7
1 1 2 4 4 5 4 4 5 5 6 6 5 5 9 7 7 7 7 6 6 6 5 6 7 7 7 7 8 7 7 7 7 7 7 7 6 6 5 5 6 6 7
3 3 3 3 3 3 4 5 4 5 5 5 5 5 4 6 6 6 6 5 5 5 5 5 7 6 6 5 6 7 7 7 7 7 7 7 7 6 5 6 6 6 7
2 3 3 2 1 2 3 3 3 4 5 5 5 5 5 4 5 6 5 5 5 5 5 5 5 7 5 6 5 6 5 4 5 6 8 6 6 6 5 6 7 8 8
2 2 2 2 2 2 2 2 2 2 3 3 3 3 3 4 4 4 5 5 5 6 6 4 4 6 8 9 8 8 7 8 6 6 5 5 6 6 6 6 7 7 9
3 3 3 2 2 2 2 2 2 2 2 2 3 3 3 3 4 5 5 6 5 5 5 4 5 7 7 7 8 8 8 8 8 9 6 5 5 5 5 8 9 8 10
Wind_Direction
146 146 143 138 137 135 140 134 133 131 131 138 133 140 129 122 119 122 109 140 164 147 138 164 161 166 180 197 202 203 214 217 251 282 262 287 290 291 304 311 312 311 310
143 139 142 136 134 136 137 134 139 134 133 136 132 135 136 139 142 143 162 172 158 162 165 177 183 188 202 208 209 211 225 226 254 270 289 288 285 302 302 300 306 302 308
139 140 138 135 136 134 133 134 133 135 133 142 140 147 145 151 163 169 168 163 168 174 177 193 198 200 208 210 215 225 233 241 245 262 276 279 277 285 294 301 308 306 312
135 136 136 138 140 134 131 129 131 144 135 141 141 146 161 164 168 166 172 171 178 187 194 208 208 213 219 213 220 236 248 251 255 258 267 276 280 290 288 300 312 313 308
131 130 130 129 130 126 130 130 133 141 130 139 145 156 159 169 169 175 177 179 182 197 206 214 220 222 223 227 228 241 249 253 256 262 268 274 284 298 306 322 303 307 312
126 124 123 132 126 128 134 132 138 143 132 143 149 152 165 172 179 183 171 183 198 209 214 213 221 214 229 237 240 248 255 253 260 267 275 276 290 306 308 308 306 322 328
124 123 125 131 129 134 126 132 138 135 136 141 147 155 177 180 185 189 190 198 206 216 221 223 226 231 234 242 252 259 259 259 259 272 272 284 304 303 294 299 312 308 292
122 123 122 127 134 128 132 135 138 141 144 151 167 173 173 187 192 197 197 207 219 225 221 227 239 246 236 234 246 254 253 250 248 253 264 286 262 273 289 303 306 299 290
122 120 127 131 129 128 129 136 139 137 145 155 163 171 183 196 201 204 199 209 226 237 232 230 232 240 241 232 238 248 252 248 239 220 153 157 175 325 311 310 290 299 301
114 116 118 126 126 131 136 143 136 134 138 150 172 184 181 191 203 208 209 207 228 230 233 239 226 238 241 230 233 243 251 249 221 192 198 198 253 289 275 257 287 286 297
101 108 114 124 130 132 127 123 126 138 151 165 159 157 180 203 210 215 219 211 223 235 243 246 232 235 234 233 232 230 241 245 212 215 221 239 247 241 236 237 264 273 281
105 108 113 118 112 121 131 142 136 134 139 145 172 205 215 215 218 224 227 230 230 235 244 243 239 237 241 240 236 235 216 171 188 207 233 247 246 245 247 254 271 273 271
113 115 119 117 127 138 142 131 140 153 160 169 193 207 216 206 229 233 237 241 243 247 241 246 245 243 236 240 236 208 181 185 211 231 242 246 237 247 270 269 270 274 276
137 136 127 129 127 122 122 153 154 169 181 190 203 219 220 210 227 224 227 235 243 244 249 246 243 237 226 211 198 197 182 202 219 234 245 243 215 224 254 257 283 287 294
106 102 119 131 155 150 172 182 187 198 186 179 207 213 208 220 225 207 202 210 218 219 197 223 229 225 199 196 199 202 203 205 216 224 227 227 229 235 245 234 262 280 261
131 148 166 160 169 174 188 203 231 248 213 220 246 222 223 242 245 218 225 218 200 166 192 210 222 224 226 219 216 218 217 218 221 217 222 225 230 234 243 236 247 256 275
165 165 164 165 177 181 184 203 218 232 245 230 236 243 238 250 229 226 219 209 214 207 228 235 233 221 227 227 225 223 224 216 204 212 216 218 222 231 216 245 249 261 270
143 150 176 182 183 186 197 195 224 218 210 219 232 245 252 244 234 225 224 228 232 233 238 244 241 235 229 226 223 225 223 202 202 203 207 210 210 223 233 242 247 258 273
183 178 181 188 192 194 205 197 223 229 243 268 296 241 240 240 238 238 234 228 234 238 237 244 248 237 240 233 228 223 221 212 203 195 204 202 204 210 229 239 249 248 265
201 174 179 187 193 198 189 223 232 243 242 241 245 251 202 181 225 225 225 231 237 245 247 254 256 252 245 238 231 218 208 198 195 196 202 199 202 208 227 233 242 259 263
190 159 175 166 206 208 221 226 232 234 238 243 255 255 243 242 255 244 236 231 239 252 259 259 261 253 248 240 228 211 209 203 196 195 200 202 198 207 219 235 246 250 263
75 171 186 211 212 217 230 234 233 235 242 254 265 254 260 244 245 254 256 257 257 258 263 265 264 257 244 231 218 210 204 201 192 197 202 202 199 205 206 224 241 251 260
209 201 206 219 228 216 222 227 235 244 252 258 271 272 253 249 258 265 268 267 266 264 261 253 258 254 242 231 218 212 203 201 199 191 197 198 201 206 204 225 238 254 259
168 188 200 196 201 247 260 268 260 253 269 281 287 293 298 298 290 285 285 286 280 275 264 260 252 249 237 217 208 206 202 182 175 189 192 197 204 201 214 227 239 251 268
141 138 157 186 200 208 208 230 286 316 315 309 313 316 315 309 298 293 293 295 294 293 288 265 253 250 231 213 208 201 192 188 171 168 177 200 216 218 222 236 250 262 265
109 108 96 95 90 80 65 57 49 30 8 355 348 343 337 321 316 318 319 311 307 302 291 281 265 244 235 222 215 202 197 194 185 186 188 200 214 224 227 240 252 260 270